Parkersburg, WV

10:48 AM EDT on August 20, 2019 (GMT -0400)
Wood County Wilson

Weather History for KPKB - July, 2019

Change the Weather History Date:

Sunday, July 21, 2019

  Actual Average Record
Temperature  
Mean Temperature 82 °F 74 °F  
Max Temperature 91 °F 85 °F 103 °F (1934)
Min Temperature 73 °F 64 °F 51 °F (1965)
Degree Days  
Heating Degree Days 0 0  
Month to date heating degree days 0 0  
Since 1 June heating degree days 16 19  
Since 1 July heating degree days 0 0  
Cooling Degree Days 17 9  
Month to date cooling degree days 288 201  
Year to date cooling degree days 612 476  
Since 1 June cooling degree days 467 392  
Growing Degree Days 32 (Base 50)    
Moisture  
Dew Point 73 °F    
Average Humidity 79    
Maximum Humidity 94    
Minimum Humidity 64    
Precipitation  
Precipitation 0.38 in 0.14 in 1.43 in (1949)
Month to date precipitation 6.58 2.81  
Year to date precipitation 28.25 23.78  
Sea Level Pressure  
Sea Level Pressure 29.97 in    
Wind  
Wind Speed 4 mph (SSW)    
Max Wind Speed 15 mph    
Max Gust Speed 20 mph    
Visibility 7 miles    
Events Rain , Thunderstorm    
T = Trace of Precipitation, MM = Missing Value Source: NWS Daily Summary

Daily Weather History Graph

Daily Weather History Graph

Search for Another Location

Airport or City:

Astronomy

Jul. 21, 2019 Rise Set
Actual Time 6:15 AM EDT 8:47 PM EDT
Civil Twilight 5:45 AM EDT 9:18 PM EDT
Nautical Twilight 5:06 AM EDT 9:57 PM EDT
Astronomical Twilight 4:23 AM EDT 10:39 PM EDT
Moon 11:43 PM EDT (7/21) 10:33 AM EDT (7/21)
Length of Visible Light 15h 33m
Length of Day
14h 31m
Waning Gibbous, 80% of the Moon is Illuminated
Jul 21
Waning Gibbous
Jul 24
Last Quarter
Jul 31
New
Aug 7
First Quarter
Aug 15
Full

Hourly Weather History & Observations

Time (EDT) Temp. Heat Index Dew Point Humidity Pressure Visibility Wind Dir Wind Speed Gust Speed Precip Events Conditions
12:53 AM 78.1 °F - 73.0 °F 84% 29.96 in 7.0 mi Calm Calm - N/A   Clear
1:53 AM 77.0 °F - 73.0 °F 88% 29.96 in 7.0 mi Calm Calm - N/A   Clear
2:53 AM 75.9 °F - 73.0 °F 91% 29.94 in 6.0 mi SSW 4.6 mph - N/A   Clear
3:53 AM 75.9 °F - 73.0 °F 91% 29.94 in 7.0 mi Calm Calm - N/A   Clear
4:53 AM 75.9 °F - 72.0 °F 87% 29.93 in 7.0 mi SSW 5.8 mph - N/A   Clear
5:53 AM 75.0 °F - 72.0 °F 90% 29.96 in 6.0 mi Calm Calm - N/A   Clear
6:53 AM 75.0 °F - 72.0 °F 90% 29.98 in 4.0 mi SE 3.5 mph - N/A   Clear
7:53 AM 77.0 °F - 73.0 °F 88% 29.99 in 5.0 mi Calm Calm - N/A   Mostly Cloudy
8:53 AM 81.0 °F 86.7 °F 75.0 °F 82% 30.00 in 8.0 mi West 4.6 mph - N/A   Partly Cloudy
9:53 AM 84.0 °F 91.2 °F 73.9 °F 72% 29.99 in 9.0 mi Calm Calm - N/A   Clear
10:53 AM 86.0 °F 95.1 °F 75.0 °F 70% 29.98 in 10.0 mi Variable 3.5 mph - N/A   Partly Cloudy
11:53 AM 89.1 °F 100.2 °F 75.9 °F 65% 29.99 in 10.0 mi Variable 3.5 mph - N/A   Mostly Cloudy
12:53 PM 89.1 °F 99.1 °F 75.0 °F 63% 29.97 in 10.0 mi West 5.8 mph - N/A   Mostly Cloudy
1:37 PM 88.0 °F 96.5 °F 73.9 °F 63% 29.98 in 10.0 mi SW 8.1 mph - 0.00 in Thunderstorm Partly Cloudy
1:53 PM 89.1 °F 99.1 °F 75.0 °F 63% 29.96 in 10.0 mi Variable 4.6 mph - 0.00 in Thunderstorm Mostly Cloudy
2:33 PM 84.9 °F 92.1 °F 73.9 °F 69% 29.99 in 10.0 mi SSW 11.5 mph - N/A Thunderstorm Thunderstorm
2:47 PM 80.6 °F 85.4 °F 73.4 °F 79% 30.03 in 0.2 mi West 9.2 mph 20.7 mph 0.18 in Rain , Thunderstorm Heavy Thunderstorms and Rain
2:51 PM 77.0 °F - 73.4 °F 89% 30.02 in 1.0 mi WSW 9.2 mph - 0.32 in Rain , Thunderstorm Heavy Thunderstorms and Rain
2:53 PM 77.0 °F - 73.9 °F 90% 30.00 in 1.0 mi WNW 8.1 mph - 0.34 in Rain , Thunderstorm Heavy Thunderstorms and Rain
2:57 PM 77.0 °F - 73.9 °F 90% 30.02 in 1.0 mi WNW 6.9 mph - 0.03 in Rain , Thunderstorm Heavy Thunderstorms and Rain
3:06 PM 75.0 °F - 72.0 °F 90% 30.02 in 3.0 mi West 3.5 mph - 0.04 in Rain , Thunderstorm Light Thunderstorms and Rain
3:20 PM 75.9 °F - 73.0 °F 91% 30.01 in 7.0 mi SSE 3.5 mph - 0.04 in Rain Light Rain
3:53 PM 80.1 °F 84.5 °F 73.9 °F 81% 29.96 in 10.0 mi WSW 6.9 mph - 0.04 in   Clear
4:53 PM 81.0 °F 85.8 °F 73.0 °F 77% 29.93 in 10.0 mi South 5.8 mph - N/A   Clear
5:53 PM 81.0 °F 85.8 °F 73.0 °F 77% 29.92 in 10.0 mi ESE 4.6 mph - N/A   Clear
6:53 PM 81.0 °F 86.2 °F 73.9 °F 79% 29.93 in 10.0 mi South 4.6 mph - N/A   Partly Cloudy
7:53 PM 79.0 °F - 73.0 °F 82% 29.94 in 10.0 mi South 5.8 mph - N/A   Clear
8:53 PM 77.0 °F - 72.0 °F 84% 29.94 in 10.0 mi South 3.5 mph - N/A   Partly Cloudy
9:53 PM 75.9 °F - 73.0 °F 91% 29.94 in 9.0 mi Calm Calm - N/A   Clear
10:53 PM 75.9 °F - 72.0 °F 87% 29.94 in 9.0 mi South 8.1 mph - N/A   Mostly Cloudy
11:53 PM 75.0 °F - 70.0 °F 84% 29.94 in 10.0 mi South 8.1 mph - N/A   Clear